• en Suisse
  • Liste des pays
  • À 7 jours
  • Température de l'eau
  • Carte satellitaire
  • Carte météo
  • Widgets météo
  • user-avatar
    Se connecter

    Météo par heure à Barra

    Ce jour, 26 Mai, Samedi

    Heure Température Précipitation Vent Pression Humidité
    00:00 +20°C° 0,3 mm 4 m/s 751 mmHg 96%
    01:00 +19°C° 0,3 mm 4 m/s 751 mmHg 96%
    02:00 +19°C° 0,1 mm 4 m/s 751 mmHg 96%
    03:00 +19°C° 0,1 mm 4 m/s 751 mmHg 96%
    04:00 +19°C° 0 mm 4 m/s 751 mmHg 96%
    05:00 +20°C° 0,1 mm 4 m/s 751 mmHg 96%
    06:00 +20°C° 0,1 mm 4 m/s 751 mmHg 96%
    07:00 +20°C° 0,1 mm 5 m/s 751 mmHg 95%
    08:00 +20°C° 0,3 mm 5 m/s 752 mmHg 94%
    09:00 +21°C° 0,3 mm 5 m/s 752 mmHg 92%
    10:00 +21°C° 0,3 mm 5 m/s 752 mmHg 91%
    11:00 +22°C° 0,3 mm 5 m/s 752 mmHg 87%
    12:00 +23°C° 0,3 mm 5 m/s 751 mmHg 84%
    13:00 +23°C° 0,3 mm 5 m/s 751 mmHg 81%
    14:00 +23°C° 0,3 mm 5 m/s 751 mmHg 80%
    15:00 +23°C° 0,3 mm 5 m/s 751 mmHg 79%
    16:00 +23°C° 0,3 mm 5 m/s 751 mmHg 79%
    17:00 +22°C° 0,4 mm 5 m/s 751 mmHg 84%
    18:00 +21°C° 0,4 mm 5 m/s 751 mmHg 89%
    19:00 +20°C° 0,4 mm 5 m/s 752 mmHg 95%
    20:00 +20°C° 0,5 mm 5 m/s 752 mmHg 95%
    21:00 +20°C° 0,5 mm 6 m/s 752 mmHg 95%
    22:00 +20°C° 0,5 mm 6 m/s 752 mmHg 96%
    23:00 +20°C° 0,6 mm 6 m/s 752 mmHg 96%

    Demain, 27 Mai, Dimanche

    Heure Température Précipitation Vent Pression Humidité
    00:00 +20°C° 0,6 mm 5 m/s 752 mmHg 96%
    01:00 +20°C° 0,6 mm 5 m/s 752 mmHg 96%
    02:00 +20°C° 0,5 mm 5 m/s 752 mmHg 96%
    03:00 +20°C° 0,5 mm 5 m/s 751 mmHg 96%
    04:00 +20°C° 0,5 mm 5 m/s 751 mmHg 96%
    05:00 +20°C° 0,5 mm 5 m/s 751 mmHg 96%
    06:00 +20°C° 0,5 mm 5 m/s 752 mmHg 96%
    07:00 +20°C° 0,5 mm 5 m/s 752 mmHg 96%
    08:00 +21°C° 0,3 mm 5 m/s 752 mmHg 94%
    09:00 +21°C° 0,3 mm 5 m/s 752 mmHg 92%
    10:00 +22°C° 0,3 mm 5 m/s 753 mmHg 91%
    11:00 +22°C° 0,3 mm 5 m/s 752 mmHg 89%
    12:00 +23°C° 0,3 mm 5 m/s 752 mmHg 86%
    13:00 +23°C° 0,3 mm 5 m/s 751 mmHg 84%
    14:00 +23°C° 0,3 mm 5 m/s 751 mmHg 84%
    15:00 +23°C° 0,3 mm 5 m/s 751 mmHg 83%
    16:00 +23°C° 0,3 mm 5 m/s 750 mmHg 82%
    17:00 +22°C° 0,2 mm 5 m/s 751 mmHg 87%
    18:00 +21°C° 0,2 mm 5 m/s 751 mmHg 92%
    19:00 +20°C° 0,2 mm 5 m/s 751 mmHg 96%
    20:00 +20°C° 0,3 mm 5 m/s 751 mmHg 96%
    21:00 +20°C° 0,3 mm 5 m/s 752 mmHg 96%
    22:00 +20°C° 0,3 mm 5 m/s 752 mmHg 96%
    23:00 +20°C° 0,5 mm 5 m/s 752 mmHg 96%

    Après-demain, 28 Mai, Lundi

    Heure Température Précipitation Vent Pression Humidité
    00:00 +20°C° 0,5 mm 5 m/s 752 mmHg 96%
    01:00 +20°C° 0,5 mm 5 m/s 751 mmHg 96%
    02:00 +20°C° 0,5 mm 5 m/s 751 mmHg 96%
    03:00 +20°C° 0,5 mm 5 m/s 751 mmHg 96%
    04:00 +20°C° 0,5 mm 5 m/s 751 mmHg 96%
    05:00 +20°C° 0,5 mm 5 m/s 751 mmHg 96%
    06:00 +20°C° 0,5 mm 5 m/s 751 mmHg 96%
    07:00 +20°C° 0,5 mm 5 m/s 751 mmHg 96%
    08:00 +20°C° 0,4 mm 5 m/s 752 mmHg 95%
    09:00 +21°C° 0,4 mm 5 m/s 752 mmHg 93%
    10:00 +21°C° 0,4 mm 5 m/s 752 mmHg 92%
    11:00 +22°C° 0,3 mm 5 m/s 752 mmHg 87%
    12:00 +23°C° 0,3 mm 5 m/s 751 mmHg 83%
    13:00 +25°C° 0,3 mm 5 m/s 751 mmHg 78%
    14:00 +25°C° 0,2 mm 5 m/s 751 mmHg 77%
    15:00 +25°C° 0,2 mm 5 m/s 750 mmHg 76%
    16:00 +25°C° 0,2 mm 5 m/s 750 mmHg 76%
    17:00 +22°C° 0,2 mm 5 m/s 750 mmHg 82%
    18:00 +21°C° 0,2 mm 5 m/s 750 mmHg 88%
    19:00 +20°C° 0,2 mm 5 m/s 751 mmHg 95%
    20:00 +20°C° 0,3 mm 5 m/s 751 mmHg 95%
    21:00 +20°C° 0,3 mm 5 m/s 751 mmHg 96%
    22:00 +20°C° 0,3 mm 5 m/s 752 mmHg 96%
    23:00 +20°C° 0,5 mm 5 m/s 751 mmHg 96%

    29 Mai, Mardi

    Heure Température Précipitation Vent Pression Humidité
    00:00 +20°C° 0,5 mm 5 m/s 751 mmHg 96%
    01:00 +20°C° 0,5 mm 5 m/s 751 mmHg 96%
    02:00 +20°C° 0,8 mm 5 m/s 751 mmHg 96%
    03:00 +20°C° 0,8 mm 5 m/s 750 mmHg 96%
    04:00 +20°C° 0,8 mm 5 m/s 750 mmHg 96%
    05:00 +20°C° 0,7 mm 5 m/s 750 mmHg 96%
    06:00 +20°C° 0,7 mm 5 m/s 751 mmHg 96%
    07:00 +20°C° 0,7 mm 5 m/s 751 mmHg 96%
    08:00 +20°C° 0,5 mm 5 m/s 751 mmHg 94%
    09:00 +21°C° 0,5 mm 5 m/s 752 mmHg 93%
    10:00 +21°C° 0,5 mm 5 m/s 752 mmHg 91%
    11:00 +22°C° 0,5 mm 5 m/s 752 mmHg 90%
    12:00 +22°C° 0,5 mm 5 m/s 751 mmHg 89%
    13:00 +22°C° 0,5 mm 5 m/s 751 mmHg 89%
    14:00 +22°C° 0,3 mm 5 m/s 750 mmHg 87%
    15:00 +22°C° 0,3 mm 5 m/s 750 mmHg 85%
    16:00 +23°C° 0,3 mm 5 m/s 750 mmHg 84%
    17:00 +22°C° 0,1 mm 5 m/s 750 mmHg 87%
    18:00 +21°C° 0,1 mm 5 m/s 751 mmHg 90%
    19:00 +20°C° 0,1 mm 4 m/s 751 mmHg 94%
    20:00 +19°C° 0 mm 4 m/s 751 mmHg 94%
    21:00 +19°C° 0 mm 4 m/s 752 mmHg 95%
    22:00 +19°C° 0 mm 4 m/s 752 mmHg 95%
    23:00 +19°C° 0,1 mm 4 m/s 752 mmHg 96%

    30 Mai, Mercredi

    Heure Température Précipitation Vent Pression Humidité
    00:00 +19°C° 0,1 mm 4 m/s 752 mmHg 96%
    01:00 +19°C° 0,1 mm 4 m/s 752 mmHg 96%
    02:00 +19°C° 0,2 mm 4 m/s 752 mmHg 97%
    03:00 +19°C° 0,2 mm 4 m/s 751 mmHg 97%
    04:00 +19°C° 0,2 mm 4 m/s 751 mmHg 97%
    05:00 +18°C° 0,2 mm 4 m/s 752 mmHg 97%
    06:00 +18°C° 0,2 mm 4 m/s 752 mmHg 97%
    07:00 +18°C° 0,2 mm 4 m/s 752 mmHg 97%
    08:00 +20°C° 0 mm 4 m/s 753 mmHg 86%
    09:00 +22°C° 0 mm 5 m/s 753 mmHg 75%
    10:00 +25°C° 0 mm 5 m/s 753 mmHg 64%
    11:00 +25°C° 0 mm 5 m/s 753 mmHg 60%
    12:00 +26°C° 0 mm 5 m/s 752 mmHg 56%
    13:00 +27°C° 0 mm 5 m/s 752 mmHg 53%
    14:00 +27°C° 0 mm 5 m/s 752 mmHg 54%
    15:00 +26°C° 0 mm 5 m/s 751 mmHg 55%
    16:00 +26°C° 0 mm 5 m/s 751 mmHg 57%
    17:00 +23°C° 0 mm 4 m/s 752 mmHg 67%
    18:00 +21°C° 0 mm 4 m/s 752 mmHg 76%
    19:00 +19°C° 0 mm 4 m/s 753 mmHg 86%
    20:00 +19°C° 0,1 mm 4 m/s 753 mmHg 89%
    21:00 +19°C° 0,1 mm 4 m/s 753 mmHg 91%
    22:00 +19°C° 0,1 mm 4 m/s 754 mmHg 94%
    23:00 +19°C° 0,1 mm 4 m/s 753 mmHg 94%

    31 Mai, Jeudi

    Heure Température Précipitation Vent Pression Humidité
    00:00 +18°C° 0,1 mm 4 m/s 753 mmHg 95%
    01:00 +17°C° 0,1 mm 5 m/s 753 mmHg 96%
    02:00 +17°C° 0 mm 5 m/s 753 mmHg 96%
    03:00 +17°C° 0 mm 5 m/s 753 mmHg 96%
    04:00 +16°C° 0 mm 5 m/s 752 mmHg 96%
    05:00 +16°C° 0 mm 5 m/s 753 mmHg 94%
    06:00 +16°C° 0 mm 5 m/s 753 mmHg 93%
    07:00 +16°C° 0 mm 5 m/s 754 mmHg 91%
    08:00 +19°C° 0 mm 5 m/s 754 mmHg 81%
    09:00 +21°C° 0 mm 6 m/s 754 mmHg 70%
    10:00 +24°C° 0 mm 6 m/s 754 mmHg 59%
    11:00 +24°C° 0 mm 6 m/s 754 mmHg 57%
    12:00 +26°C° 0 mm 6 m/s 753 mmHg 54%
    13:00 +26°C° 0 mm 6 m/s 753 mmHg 52%
    14:00 +26°C° 0 mm 6 m/s 752 mmHg 53%
    15:00 +25°C° 0 mm 5 m/s 752 mmHg 54%
    16:00 +25°C° 0 mm 5 m/s 752 mmHg 55%
    17:00 +22°C° 0 mm 5 m/s 752 mmHg 63%
    18:00 +20°C° 0 mm 4 m/s 753 mmHg 71%
    19:00 +18°C° 0 mm 4 m/s 753 mmHg 80%
    20:00 +18°C° 0 mm 4 m/s 753 mmHg 81%
    21:00 +18°C° 0 mm 4 m/s 754 mmHg 83%
    22:00 +18°C° 0 mm 4 m/s 754 mmHg 85%
    23:00 +18°C° 0 mm 4 m/s 754 mmHg 84%
    Voir plus